This is the latest recevied weather packets stored in our database for station/object DB0BGL. If no packets are shown the sender has not sent any weather packets the latest 10 day(s).
| Time | Temp. | Humidity | Pressure | Rain* | Wind** | Luminosity | Snow |
|---|---|---|---|---|---|---|---|
| 1788370346 | 10.56° C | 93% | 0 hPa | 0 mm | - | - | - |
| 1788369980 | 10.56° C | 93% | 0 hPa | 0 mm | - | - | - |
| 1788369379 | 10.56° C | 93% | 0 hPa | 0 mm | - | - | - |
| 1788368780 | 11.11° C | 92% | 0 hPa | 0 mm | - | - | - |
| 1788368178 | 12.22° C | 100% | 0 hPa | 0 mm | - | - | - |
| 1788367578 | 12.22° C | 100% | 0 hPa | 0 mm | - | - | - |
| 1788366977 | 13.33° C | 79% | 0 hPa | 0 mm | - | - | - |
| 1788366376 | 15° C | 74% | 0 hPa | 0 mm | - | - | - |
| 1788365776 | 16.67° C | 67% | 0 hPa | 0 mm | - | - | - |
| 1788365175 | 17.78° C | 60% | 0 hPa | 0 mm | - | - | - |
| 1788364575 | 20° C | 55% | 0 hPa | 0 mm | - | - | - |
| 1788363974 | 20.56° C | 54% | 0 hPa | 0 mm | - | - | - |
| 1788363373 | 20° C | 53% | 0 hPa | 0 mm | - | - | - |
| 1788362775 | 20° C | 52% | 0 hPa | 0 mm | - | - | - |
| 1788362174 | 20° C | 53% | 0 hPa | 0 mm | - | - | - |
| 1788361572 | 20.56° C | 46% | 0 hPa | 0 mm | - | - | - |
| 1788360973 | 21.67° C | 51% | 0 hPa | 0 mm | - | - | - |
| 1788360371 | 21.67° C | 100% | 0 hPa | 0 mm | - | - | - |
| 1788359770 | 22.22° C | 49% | 0 hPa | 0 mm | - | - | - |
| 1788359169 | 21.67° C | 50% | 0 hPa | 0 mm | - | - | - |
| 1788358569 | 22.22° C | 49% | 0 hPa | 0 mm | - | - | - |
| 1788357968 | 23.33° C | 45% | 0 hPa | 0 mm | - | - | - |
| 1788357368 | 23.33° C | 45% | 0 hPa | 0 mm | - | - | - |
| 1788356767 | 22.22° C | 48% | 0 hPa | 0 mm | - | - | - |
| 1788356166 | 21.11° C | 49% | 0 hPa | 0 mm | - | - | - |
* Rain latest hour (hover to see other rain measurements)
** Current wind speed in m/s (hover to see current wind gust speed)